Tracking 35274 objects as of 10-Sep-2026
HD Live streaming from Space Station
objects crossing your sky now

LEMUR 2 ARTFISCHER


LEMUR 2 ARTFISCHER is no longer on orbit
LEMUR 2 ARTFISCHER is classified as:


NORAD ID: 42881
Int'l Code: 2017-042BJ
Launch date: July 14, 2017
Source: United States (US)
Launch site: TYURATAM MISSILE AND SPACE COMPLEX (TTMTR)
Decay date: 2022-06-30
Your satellite tracking list
Your tracking list is empty




NASA's NSSDC Master Catalog

Two Line Element Set (TLE):
1 42881U 17042BJ  22181.44765428  .12777812  21689-5  32336-3 0  9997
2 42881  96.7771  23.2502 0010666 281.9858  78.0250 16.45171906279196
Source of the keplerian elements: AFSPC